User: anonymous   Login
Location: Brno
(49.2000°N, 16.6330°E)
Time: 10:50:50
(UTC+02:00)
Language:

Meteor 1-4 Rocket - Orbit

View from above orbital plane
View from above orbital plane
View from above satellite
View from above satellite

Ground track
Ground track

The orbit data is extracted from the following two-line orbital elements,

1 04394U 70037B   16267.97077676  .00001587  00000-0  56883-4 0  9993
2 04394  81.2438 327.2252 0040704 313.6619  46.1243 15.27306387524121
Epoch (UTC): 23 September 2016 23:17:55
Eccentricity: 0.0040704
inclination: 81.2438°
perigee height: 456 km
apogee height: 512 km
right ascension of ascending node: 327.2252°
argument of perigee: 313.6619°
revolutions per day: 15.27306387
mean anomaly at epoch: 46.1243°
orbit number at epoch: 52412

The dashed part of the orbit path shows where the satellite is in the earth's shadow,  

DLR